Location: McCall
(45.0000°N, 116.0000°W)
Time: 22:06:11
(UTC-06:00)

Amateur Radio Satellites - All Passes

Search period start: 29 July 2015 21:36
Search period end: 30 July 2015 21:36
Location: McCall, 45.0000°N, 116.0000°W

Satellite Date Start Highest point End Downlink Frequencies (MHz)
Time Altitude Azimuth
UWE-3 29 Jul 21:43:33 21:46:57 25° 67° (ENE) 21:50:29 435.000/436.395/437.385
BRITE-PL 29 Jul 21:46:43 21:50:03 20° 268° (W) 21:53:10 437.365/2234.400
FUNcube-1 29 Jul 21:49:01 21:52:12 22° 66° (ENE) 21:55:32 145.935
CUBEBUG 2 29 Jul 21:52:51 21:56:42 38° 70° (ENE) 22:00:41 437.445
COMPASS 1 29 Jul 22:02:40 22:06:51 65° 259° (W) 22:11:04 437.405
Oscar 11 29 Jul 22:05:30 22:09:43 53° 73° (ENE) 22:13:59 145.826/435.025
UKube-1 29 Jul 22:09:29 22:11:04 12° 60° (ENE) 22:12:53 .
GOMX 1 29 Jul 22:11:41 22:14:41 18° 269° (W) 22:17:30 467.674
CUTE 1.7 + AOD 2 29 Jul 22:12:09 22:16:03 33° 264° (W) 22:19:57 437.475
DOVE 4 29 Jul 22:12:25 22:16:02 27° 266° (W) 22:19:33 437.250
M-CUBED/EXP-1 PRIME 29 Jul 22:13:24 22:15:43 14° 92° (E) 22:18:15 437.505
SEEDS 29 Jul 22:13:30 22:17:30 39° 263° (W) 22:21:31 437.485
CANX-2 29 Jul 22:20:31 22:24:06 25° 267° (W) 22:27:40 2200.000
Cosmos 2499 29 Jul 22:20:54 22:26:58 20° 281° (W) 22:32:42 435.465 / 435.565
DX 1 29 Jul 22:31:30 22:34:47 22° 65° (ENE) 22:38:07 434.975-435.025
HUMSAT D 29 Jul 22:34:36 22:38:08 28° 68° (ENE) 22:41:46 437.325/437.525
PHONESAT 2.4 29 Jul 22:34:40 22:37:18 20° 159° (SSE) 22:39:58 2401.200-2431.200
HO-68 29 Jul 22:35:39 22:41:57 32° 266° (W) 22:48:10 435.675
VELOX 1 29 Jul 22:36:42 22:39:08 15° 62° (ENE) 22:41:43 145.980
ESTCUBE 1 29 Jul 22:38:48 22:40:16 12° 60° (ENE) 22:41:56 437.505/2401.250
CINEMA 3 29 Jul 22:41:12 22:44:52 30° 265° (W) 22:48:33 145.822/145.860
ISS 29 Jul 22:43:23 22:45:56 22° 138° (SE) 22:48:32 145.825
AUBIESAT-1 29 Jul 22:44:20 22:48:06 24° 97° (E) 22:51:55 437.475
AAUSAT CUBESAT 2 29 Jul 22:47:22 22:50:55 25° 267° (W) 22:54:25 437.432
DELFI C3 29 Jul 22:51:19 22:55:22 71° 258° (WSW) 22:59:27 145.870
Cosmos 2491 29 Jul 22:51:49 22:57:21 19° 55° (NE) 23:03:14 435.465 / 435.565
RS-15 29 Jul 22:54:17 23:04:52 61° 116° (ESE) 23:15:53 29.354- 29.394
TIGRISAT 29 Jul 23:00:06 23:01:11 11° 86° (E) 23:02:34 435.000
ANTELSAT 29 Jul 23:00:23 23:01:51 12° 86° (E) 23:03:36 437.575/2403.000
ZACube-1 29 Jul 23:01:09 23:05:18 64° 259° (W) 23:09:33 437.345
50 SAT 29 Jul 23:03:01 23:06:15 26° 68° (ENE) 23:09:36 437.505
VERMONT LUNAR 29 Jul 23:03:10 23:06:08 35° 182° (S) 23:09:05 437.305
UWE-3 29 Jul 23:19:38 23:23:23 31° 265° (W) 23:27:11 435.000/436.395/437.385
FUNcube-1 29 Jul 23:24:27 23:28:20 36° 264° (W) 23:32:17 145.935
CUBEBUG 2 29 Jul 23:30:29 23:33:36 20° 269° (W) 23:36:41 437.445
AISAT 29 Jul 23:31:05 23:35:21 51° 72° (ENE) 23:39:39 437.250
UKube-1 29 Jul 23:42:19 23:46:39 80° 257° (WSW) 23:50:59 .
Oscar 11 29 Jul 23:43:34 23:46:16 16° 271° (W) 23:48:50 145.826/435.025
M-CUBED/EXP-1 PRIME 29 Jul 23:46:15 23:51:05 78° 289° (WNW) 23:55:50 437.505
UNISAT 6 29 Jul 23:49:44 23:54:02 36° 96° (E) 23:58:23 437.425
CUBEBUG 1 29 Jul 23:53:33 23:57:45 49° 72° (ENE) 00:01:59 437.445
DX 1 30 Jul 00:06:41 00:10:48 40° 262° (W) 00:14:54 434.975-435.025
HUMSAT D 30 Jul 00:10:18 00:13:51 27° 266° (W) 00:17:25 437.325/437.525
VELOX 1 30 Jul 00:10:50 00:15:14 64° 258° (WSW) 00:19:37 145.980
PHONESAT 2.4 30 Jul 00:11:32 00:14:49 38° 175° (S) 00:18:06 2401.200-2431.200
ESTCUBE 1 30 Jul 00:11:57 00:16:30 90° 21° (NNE) 00:21:04 437.505/2401.250
POLYITAN 1 30 Jul 00:15:48 00:19:21 25° 94° (E) 00:22:57 437.675
AUBIESAT-1 30 Jul 00:18:26 00:22:59 45° 295° (WNW) 00:27:27 437.475
ISS 30 Jul 00:18:56 00:22:09 60° 334° (NNW) 00:25:24 145.825
AIST 1 30 Jul 00:21:45 00:26:00 61° 79° (E) 00:30:12
BEESAT 3 30 Jul 00:25:57 00:28:31 17° 112° (ESE) 00:31:14 437.485
POPSAT HIP 1 30 Jul 00:33:40 00:37:38 38° 97° (E) 00:41:38 437.405
TIGRISAT 30 Jul 00:33:57 00:38:38 86° 284° (WNW) 00:43:22 435.000
ANTELSAT 30 Jul 00:34:36 00:39:18 82° 286° (WNW) 00:44:01 437.575/2403.000
50 SAT 30 Jul 00:37:31 00:40:48 25° 266° (W) 00:44:05 437.505
SPROUT 30 Jul 00:39:39 00:43:43 45° 72° (ENE) 00:47:49 437.525
VERMONT LUNAR 30 Jul 00:40:01 00:42:27 20° 199° (SSW) 00:44:53 437.305
QB50P2 30 Jul 00:40:34 00:44:41 47° 99° (E) 00:48:49 145.880/145.840
Cosmos 2491 30 Jul 00:47:14 00:56:00 79° 80° (E) 01:04:43 435.465 / 435.565
BUGSAT 1 30 Jul 00:51:36 00:55:21 36° 97° (E) 00:59:09 437.445
TISAT 1 30 Jul 01:01:40 01:05:41 49° 72° (ENE) 01:09:45 437.305
RS-15 30 Jul 01:07:05 01:17:43 49° 322° (NW) 01:28:45 29.354- 29.394
DUCHIFAT 1 30 Jul 01:08:01 01:12:17 87° 103° (ESE) 01:16:32 145.980
ITUPSAT 1 30 Jul 01:08:36 01:10:48 13° 59° (ENE) 01:13:12 437.325
QB50P1 30 Jul 01:09:17 01:13:34 87° 286° (WNW) 01:17:50 145.935-145.965
AISAT 30 Jul 01:09:21 01:12:16 17° 270° (W) 01:15:02 437.250
NANOSAT C BR1 30 Jul 01:11:36 01:15:51 84° 285° (WNW) 01:20:07 145.865
YUBILEINY 30 Jul 01:11:58 01:20:04 47° 89° (E) 01:28:20 435.215
BEESAT 2 30 Jul 01:18:36 01:22:29 44° 119° (ESE) 01:26:27 435.950
M-CUBED/EXP-1 PRIME 30 Jul 01:22:57 01:25:08 13° 307° (NW) 01:27:07 437.505
UNISAT 6 30 Jul 01:26:44 01:30:41 27° 293° (WNW) 01:34:35 437.425
CUBEBUG 1 30 Jul 01:31:29 01:34:26 17° 270° (W) 01:37:15 437.445
PHONESAT 2.4 30 Jul 01:49:16 01:52:26 32° 192° (SSW) 01:55:35 2401.200-2431.200
POLYITAN 1 30 Jul 01:51:28 01:55:17 31° 291° (WNW) 01:59:03 437.675
ISS 30 Jul 01:56:14 01:59:02 25° 354° (N) 02:01:50 145.825
AIST 1 30 Jul 02:01:21 02:03:10 12° 275° (W) 02:04:45
BEESAT 3 30 Jul 02:02:06 02:06:06 54° 309° (NW) 02:10:08 437.485
BEESAT 30 Jul 02:03:42 02:08:11 41° 69° (ENE) 02:12:42 436.000
POPSAT HIP 1 30 Jul 02:10:00 02:13:19 22° 294° (WNW) 02:16:32 437.405
TIGRISAT 30 Jul 02:12:59 02:14:44 12° 300° (WNW) 02:16:16 435.000
ANTELSAT 30 Jul 02:13:53 02:15:24 11° 301° (WNW) 02:16:42 437.575/2403.000
SPROUT 30 Jul 02:17:06 02:20:04 18° 269° (W) 02:22:56 437.525
QB50P2 30 Jul 02:17:16 02:20:16 18° 295° (WNW) 02:23:08 145.880/145.840
SWISSCUBE 30 Jul 02:23:32 02:28:19 69° 73° (ENE) 02:33:07 437.505
BUGSAT 1 30 Jul 02:27:33 02:30:39 21° 294° (WNW) 02:33:40 437.445
AIST 2 30 Jul 02:34:22 02:38:34 63° 122° (ESE) 02:42:48 435.215
TISAT 1 30 Jul 02:39:08 02:41:47 16° 270° (W) 02:44:17 437.305
ITUPSAT 1 30 Jul 02:43:14 02:48:04 86° 258° (WSW) 02:52:55 437.325
Cosmos 2491 30 Jul 02:45:26 02:52:00 24° 280° (W) 02:58:13 435.465 / 435.565
DUCHIFAT 1 30 Jul 02:46:24 02:47:29 11° 300° (WNW) 02:48:21 145.980
QB50P1 30 Jul 02:48:28 02:48:48 10° 300° (WNW) 02:48:54 145.935-145.965
O/OREOS (USA 219) 30 Jul 02:52:38 02:56:51 44° 108° (ESE) 03:01:10 437.305
ITAMSAT 1 30 Jul 02:53:00 02:54:44 12° 85° (E) 02:56:47 435.822/435.867
BEESAT 2 30 Jul 02:57:18 03:00:44 24° 318° (NW) 03:04:08 435.950
YUBILEINY 30 Jul 03:08:52 03:17:04 42° 290° (WNW) 03:25:14 435.215
Oscar 19 30 Jul 03:14:08 03:19:19 69° 102° (ESE) 03:24:29 437.125/150
STARS 30 Jul 03:15:24 03:18:49 23° 66° (ENE) 03:22:20 437.465
Cosmos 2504 30 Jul 03:15:37 03:21:41 32° 85° (E) 03:28:15 435.465 / 435.565
RS-15 30 Jul 03:24:21 03:33:43 28° 354° (N) 03:43:23 29.354- 29.394
PHONESAT 2.4 30 Jul 03:28:07 03:29:49 13° 207° (SSW) 03:31:27 2401.200-2431.200
ISS 30 Jul 03:33:07 03:36:05 31° 14° (NNE) 03:39:04 145.825
KKS-1 30 Jul 03:35:06 03:39:26 59° 72° (ENE) 03:43:48 437.445
BEESAT 30 Jul 03:42:17 03:46:12 24° 267° (W) 03:50:02 436.000
BEESAT 3 30 Jul 03:43:42 03:44:59 11° 331° (NNW) 03:46:10 437.485
Gurwin Techsat 1B 30 Jul 03:53:48 03:58:58 50° 99° (E) 04:04:08 435.225
SWISSCUBE 30 Jul 04:04:01 04:06:44 14° 272° (W) 04:09:14 437.505
JAS-2 30 Jul 04:05:42 04:12:34 34° 91° (E) 04:19:33 435.910
MOZHAYETS 4 30 Jul 04:09:45 04:12:54 19° 64° (ENE) 04:16:11
AO-7 30 Jul 04:13:54 04:18:46 17° 86° (E) 04:24:06 29.400- 29.500
AIST 2 30 Jul 04:14:17 04:17:32 20° 321° (NW) 04:20:44 435.215
ITAMSAT 1 30 Jul 04:29:52 04:35:06 90° 298° (WNW) 04:40:17 435.822/435.867
HORYU 2 30 Jul 04:31:39 04:33:54 14° 88° (E) 04:36:21 437.375
O/OREOS (USA 219) 30 Jul 04:32:56 04:36:32 23° 308° (NW) 04:40:05 437.305
STARS 30 Jul 04:51:02 04:55:06 37° 263° (W) 04:59:10 437.465
Oscar 19 30 Jul 04:54:41 04:58:11 18° 299° (WNW) 05:01:32 437.125/150
DANDE 30 Jul 05:00:34 05:01:05 10° 95° (E) 05:01:44 436.750
Cosmos 2504 30 Jul 05:06:41 05:13:35 50° 286° (WNW) 05:20:57 435.465 / 435.565
ISS 30 Jul 05:09:28 05:12:43 68° 213° (SSW) 05:15:58 145.825
KKS-1 30 Jul 05:13:55 05:16:31 15° 271° (W) 05:18:56 437.445
Gurwin Techsat 1B 30 Jul 05:34:23 05:38:41 25° 296° (WNW) 05:42:52 435.225
CUSAT 1 30 Jul 05:35:01 05:37:56 52° 99° (E) 05:40:32 437.405
RS-15 30 Jul 05:39:54 05:50:23 38° 28° (NNE) 06:01:24 29.354- 29.394
MOZHAYETS 4 30 Jul 05:45:12 05:49:46 54° 261° (W) 05:54:21
JAS-2 30 Jul 05:50:20 05:57:57 60° 290° (WNW) 06:05:34 435.910
GONETS M04 30 Jul 05:55:54 06:01:38 21° 79° (E) 06:07:44
CUBESAT XI-V 30 Jul 05:57:00 06:00:25 21° 65° (ENE) 06:03:58 437.345
AO-7 30 Jul 06:04:38 06:13:03 81° 107° (ESE) 06:21:23 29.400- 29.500
HORYU 2 30 Jul 06:06:33 06:11:03 65° 286° (WNW) 06:15:30 437.375
ITAMSAT 1 30 Jul 06:11:11 06:13:56 14° 302° (WNW) 06:16:28 435.822/435.867
PRISM 30 Jul 06:28:50 06:29:33 10° 60° (ENE) 06:30:30 437.425
DANDE 30 Jul 06:41:11 06:44:05 27° 284° (WNW) 06:46:34 436.750
STRAND 1 30 Jul 07:08:09 07:12:47 36° 68° (ENE) 07:17:30 437.568
Cosmos 2499 30 Jul 07:17:46 07:20:30 13° 74° (ENE) 07:23:49 435.465 / 435.565
CUTE-I 30 Jul 07:20:10 07:24:39 28° 93° (E) 07:29:12 437.470
CUBESAT XI-V 30 Jul 07:33:03 07:37:35 48° 262° (W) 07:42:07 437.345
JAS-2 30 Jul 07:37:29 07:41:39 15° 309° (NW) 07:45:30 435.910
GONETS M04 30 Jul 07:48:43 07:57:28 87° 280° (W) 08:06:13
RS-15 30 Jul 07:52:46 08:04:34 89° 60° (ENE) 08:16:49 29.354- 29.394
AO-7 30 Jul 07:58:22 08:05:06 28° 307° (NW) 08:11:37 29.400- 29.500
BEESAT 2 30 Jul 07:59:43 08:00:41 11° 29° (NNE) 08:01:47 435.950
PRISM 30 Jul 08:00:11 08:04:24 89° 265° (W) 08:08:37 437.425
Cubesat XI-IV 30 Jul 08:03:00 08:08:20 66° 101° (ESE) 08:13:37 437.490
GOMX 1 30 Jul 08:33:43 08:34:32 11° 87° (E) 08:35:39 467.674
BEESAT 3 30 Jul 08:41:21 08:44:37 23° 41° (NE) 08:47:53 437.485
STRAND 1 30 Jul 08:47:29 08:52:03 31° 265° (W) 08:56:35 437.568
CUTE-I 30 Jul 08:59:54 09:04:55 42° 292° (WNW) 09:09:53 437.470
M-CUBED/EXP-1 PRIME 30 Jul 09:02:36 09:05:41 21° 58° (ENE) 09:09:02 437.505
Cosmos 2499 30 Jul 09:04:51 09:12:09 72° 95° (E) 09:20:06 435.465 / 435.565
AIST 2 30 Jul 09:16:59 09:19:12 14° 32° (NNE) 09:21:31 435.215
AUBIESAT-1 30 Jul 09:33:19 09:37:02 36° 63° (ENE) 09:41:04 437.475
BEESAT 2 30 Jul 09:35:43 09:39:44 51° 50° (NE) 09:43:40 435.950
PCSat 30 Jul 09:37:11 09:40:34 18° 106° (ESE) 09:44:09 145.827
Cubesat XI-IV 30 Jul 09:44:09 09:47:59 20° 299° (WNW) 09:51:39 437.490
COMPASS 1 30 Jul 09:44:59 09:47:50 18° 90° (E) 09:50:47 437.405
BRITE-PL 30 Jul 09:47:08 09:51:27 83° 284° (WNW) 09:56:01 437.365/2234.400
GONETS M04 30 Jul 09:49:30 09:55:51 21° 303° (WNW) 10:01:51
CUTE 1.7 + AOD 2 30 Jul 09:55:02 09:59:00 35° 96° (E) 10:02:58 437.475
SEEDS 30 Jul 09:55:49 09:59:33 29° 95° (E) 10:03:17 437.485
HO-68 30 Jul 09:59:50 10:06:42 47° 99° (E) 10:13:36 435.675
TIGRISAT 30 Jul 10:00:59 10:02:45 13° 60° (ENE) 10:04:43 435.000
ANTELSAT 30 Jul 10:01:34 10:03:35 13° 61° (ENE) 10:05:47 437.575/2403.000
CANX-2 30 Jul 10:02:57 10:07:08 47° 98° (E) 10:11:17 2200.000
RS-15 30 Jul 10:06:26 10:15:53 28° 256° (WSW) 10:25:02 29.354- 29.394
DOVE 4 30 Jul 10:07:41 10:12:10 61° 101° (E) 10:16:56 437.250
GOMX 1 30 Jul 10:08:50 10:13:16 83° 283° (WNW) 10:17:59 467.674
BEESAT 3 30 Jul 10:18:52 10:22:46 46° 241° (WSW) 10:26:36 437.485
AAUSAT CUBESAT 2 30 Jul 10:27:29 10:31:30 42° 98° (E) 10:35:30 437.432
DELFI C3 30 Jul 10:29:51 10:31:52 14° 89° (E) 10:34:01 145.870
QB50P1 30 Jul 10:32:16 10:32:36 10° 60° (ENE) 10:33:08 145.935-145.965
CINEMA 3 30 Jul 10:32:39 10:37:09 51° 99° (E) 10:41:52 145.822/145.860
NANOSAT C BR1 30 Jul 10:33:59 10:34:41 10° 60° (ENE) 10:35:34 145.865
M-CUBED/EXP-1 PRIME 30 Jul 10:36:22 10:40:11 42° 258° (WSW) 10:44:19 437.505
ZACube-1 30 Jul 10:48:02 10:51:31 22° 92° (E) 10:55:09 437.345
UNISAT 6 30 Jul 10:50:43 10:54:44 38° 70° (ENE) 10:58:53 437.425
AIST 2 30 Jul 10:54:19 10:58:33 75° 53° (NE) 11:02:41 435.215
Cosmos 2499 30 Jul 11:00:12 11:06:18 25° 299° (WNW) 11:12:32 435.465 / 435.565
SO-50 30 Jul 11:06:31 11:11:15 66° 122° (ESE) 11:16:09 436.795
UWE-3 30 Jul 11:06:34 11:10:56 43° 98° (E) 11:15:23 435.000/436.395/437.385
AUBIESAT-1 30 Jul 11:08:36 11:11:54 23° 263° (W) 11:15:19 437.475
FUNcube-1 30 Jul 11:10:14 11:14:23 35° 96° (E) 11:18:37 145.935
POLYITAN 1 30 Jul 11:10:51 11:14:16 25° 67° (ENE) 11:17:47 437.675
BEESAT 2 30 Jul 11:14:40 11:17:26 17° 248° (WSW) 11:20:03 435.950
CUBEBUG 2 30 Jul 11:17:34 11:22:10 71° 102° (ESE) 11:26:53 437.445
PCSat 30 Jul 11:18:02 11:23:26 74° 303° (WNW) 11:28:54 145.827
YUBILEINY 30 Jul 11:19:33 11:26:33 26° 61° (ENE) 11:33:49 435.215
COMPASS 1 30 Jul 11:19:42 11:23:45 44° 288° (WNW) 11:27:45 437.405
O/OREOS (USA 219) 30 Jul 11:22:04 11:25:00 17° 49° (NE) 11:28:03 437.305
Oscar 11 30 Jul 11:26:43 11:31:07 84° 102° (ESE) 11:35:28 145.826/435.025
POPSAT HIP 1 30 Jul 11:28:18 11:32:08 37° 70° (ENE) 11:36:02 437.405
UKube-1 30 Jul 11:29:12 11:31:31 15° 89° (E) 11:34:02 .
CUTE 1.7 + AOD 2 30 Jul 11:31:16 11:34:46 24° 293° (WNW) 11:38:08 437.475
SEEDS 30 Jul 11:31:37 11:35:17 28° 292° (WNW) 11:38:53 437.485
TIGRISAT 30 Jul 11:34:35 11:38:54 78° 257° (WSW) 11:43:22 435.000
QB50P2 30 Jul 11:35:14 11:39:13 45° 72° (ENE) 11:43:17 145.880/145.840
ANTELSAT 30 Jul 11:35:28 11:39:48 74° 258° (WSW) 11:44:16 437.575/2403.000
CANX-2 30 Jul 11:39:42 11:42:44 18° 295° (WNW) 11:45:38 2200.000
BUGSAT 1 30 Jul 11:43:34 11:47:12 33° 70° (ENE) 11:50:52 437.445
DOVE 4 30 Jul 11:46:41 11:49:35 17° 296° (WNW) 11:52:26 437.250
HO-68 30 Jul 11:47:47 11:54:22 39° 298° (WNW) 12:00:50 435.675
GOMX 1 30 Jul 11:50:21 11:50:52 10° 299° (WNW) 11:51:09 467.674
HUMSAT D 30 Jul 11:51:27 11:55:33 41° 97° (E) 11:59:39 437.325/437.525
DX 1 30 Jul 11:53:02 11:56:46 28° 95° (E) 12:00:33 434.975-435.025
Cosmos 2491 30 Jul 11:58:06 12:03:17 18° 77° (ENE) 12:08:53 435.465 / 435.565
VELOX 1 30 Jul 11:59:59 12:03:14 20° 92° (E) 12:06:34 145.980
DUCHIFAT 1 30 Jul 12:01:58 12:06:08 83° 76° (ENE) 12:10:21 145.980
DELFI C3 30 Jul 12:03:20 12:07:19 54° 287° (WNW) 12:11:16 145.870
QB50P1 30 Jul 12:03:37 12:07:49 89° 103° (ESE) 12:12:04 145.935-145.965
AAUSAT CUBESAT 2 30 Jul 12:03:45 12:06:50 19° 295° (WNW) 12:09:47 437.432
ESTCUBE 1 30 Jul 12:03:51 12:06:38 16° 89° (E) 12:09:35 437.505/2401.250
NANOSAT C BR1 30 Jul 12:05:42 12:09:54 88° 256° (WSW) 12:14:08 145.865
50 SAT 30 Jul 12:10:22 12:13:53 30° 95° (E) 12:17:25 437.505
CINEMA 3 30 Jul 12:10:41 12:14:04 20° 295° (WNW) 12:17:26 145.822/145.860
ZACube-1 30 Jul 12:23:47 12:28:03 41° 289° (WNW) 12:32:19 437.345
UNISAT 6 30 Jul 12:28:16 12:31:42 22° 268° (W) 12:35:06 437.425
AIST 2 30 Jul 12:34:48 12:36:34 12° 250° (WSW) 12:38:08 435.215
UWE-3 30 Jul 12:43:39 12:47:14 22° 294° (WNW) 12:50:45 435.000/436.395/437.385
POLYITAN 1 30 Jul 12:46:19 12:50:05 31° 264° (W) 12:53:50 437.675
FUNcube-1 30 Jul 12:46:49 12:50:35 26° 293° (WNW) 12:54:18 145.935
SO-50 30 Jul 12:48:17 12:52:16 24° 323° (NW) 12:56:15 436.795
AIST 1 30 Jul 12:53:18 12:57:11 33° 91° (E) 13:01:06
CUBEBUG 2 30 Jul 12:55:43 12:58:24 15° 297° (WNW) 13:00:55 437.445
AISAT 30 Jul 12:55:54 13:00:21 80° 103° (ESE) 13:04:46 437.250
Oscar 19 30 Jul 12:55:59 12:59:16 18° 61° (ENE) 13:02:43 437.125/150
Cosmos 2504 30 Jul 12:59:19 13:03:05 14° 53° (NE) 13:07:24 435.465 / 435.565
O/OREOS (USA 219) 30 Jul 13:00:24 13:04:58 68° 249° (WSW) 13:09:31 437.305
UKube-1 30 Jul 13:03:49 13:08:05 57° 287° (WNW) 13:12:18 .
PCSat 30 Jul 13:04:19 13:07:53 17° 326° (NW) 13:11:19 145.827
POPSAT HIP 1 30 Jul 13:04:55 13:08:10 21° 268° (W) 13:11:19 437.405
Oscar 11 30 Jul 13:05:05 13:06:42 12° 300° (WNW) 13:08:06 145.826/435.025
QB50P2 30 Jul 13:12:32 13:15:24 17° 269° (W) 13:18:10 145.880/145.840
YUBILEINY 30 Jul 13:15:38 13:24:29 77° 264° (W) 13:33:16 435.215
CUBEBUG 1 30 Jul 13:16:23 13:20:44 76° 102° (ESE) 13:25:03 437.445
BUGSAT 1 30 Jul 13:19:34 13:22:46 22° 267° (W) 13:25:53 437.445
HUMSAT D 30 Jul 13:27:45 13:31:02 21° 294° (WNW) 13:34:15 437.325/437.525
DX 1 30 Jul 13:29:12 13:33:01 29° 292° (WNW) 13:36:44 434.975-435.025
VELOX 1 30 Jul 13:35:49 13:39:59 41° 290° (WNW) 13:44:07 145.980
ESTCUBE 1 30 Jul 13:39:30 13:43:54 53° 288° (WNW) 13:48:16 437.505/2401.250
Gurwin Techsat 1B 30 Jul 13:40:00 13:42:49 15° 58° (ENE) 13:45:51 435.225
50 SAT 30 Jul 13:45:06 13:48:21 24° 292° (WNW) 13:51:32 437.505
Cosmos 2491 30 Jul 13:50:10 13:58:58 85° 97° (E) 14:07:46 435.465 / 435.565
SPROUT 30 Jul 13:59:56 14:04:14 69° 101° (E) 14:08:31 437.525
ITAMSAT 1 30 Jul 14:11:48 14:15:53 25° 63° (ENE) 14:20:05 435.822/435.867
TISAT 1 30 Jul 14:19:28 14:23:41 69° 101° (ESE) 14:27:53 437.305
JAS-2 30 Jul 14:22:16 14:26:07 18° 53° (NE) 14:30:30 435.910
SWISSCUBE 30 Jul 14:23:18 14:25:59 15° 88° (E) 14:28:51 437.505
AIST 1 30 Jul 14:31:21 14:34:55 23° 289° (WNW) 14:38:24
Oscar 19 30 Jul 14:33:02 14:38:09 69° 259° (WSW) 14:43:17 437.125/150
AISAT 30 Jul 14:34:26 14:36:21 12° 300° (WNW) 14:38:06 437.250
ITUPSAT 1 30 Jul 14:42:40 14:46:14 21° 92° (E) 14:49:55 437.325
Cosmos 2504 30 Jul 14:49:06 14:57:20 62° 77° (ENE) 15:05:53 435.465 / 435.565
CUBEBUG 1 30 Jul 14:54:37 14:56:33 13° 299° (WNW) 14:58:18 437.445
AO-7 30 Jul 15:14:32 15:21:36 33° 56° (NE) 15:28:49 29.400- 29.500
YUBILEINY 30 Jul 15:14:54 15:19:58 16° 284° (WNW) 15:24:30 435.215
Gurwin Techsat 1B 30 Jul 15:16:49 15:22:08 88° 249° (WSW) 15:27:31 435.225
HORYU 2 30 Jul 15:31:46 15:34:39 18° 63° (ENE) 15:37:41 437.375
DANDE 30 Jul 15:34:12 15:35:46 13° 71° (ENE) 15:37:39 436.750
SPROUT 30 Jul 15:37:38 15:39:50 14° 298° (WNW) 15:41:51 437.525
BEESAT 30 Jul 15:39:16 15:44:04 76° 103° (ESE) 15:48:50 436.000
ITAMSAT 1 30 Jul 15:50:04 15:55:08 49° 261° (W) 16:00:12 435.822/435.867
Cosmos 2491 30 Jul 15:50:18 15:57:09 23° 301° (WNW) 16:03:40 435.465 / 435.565
TISAT 1 30 Jul 15:56:55 15:58:58 13° 298° (WNW) 16:00:51 437.305
SWISSCUBE 30 Jul 15:59:36 16:04:22 65° 288° (WNW) 16:09:04 437.505
GONETS M04 30 Jul 16:03:08 16:05:27 11° 47° (NE) 16:08:21
JAS-2 30 Jul 16:04:02 16:10:05 83° 74° (ENE) 16:17:03 435.910
CUSAT 1 30 Jul 16:05:44 16:09:28 48° 78° (ENE) 16:14:22 437.405
ITUPSAT 1 30 Jul 16:19:48 16:24:25 46° 290° (WNW) 16:28:57 437.325
STARS 30 Jul 16:38:28 16:42:27 33° 96° (E) 16:46:29 437.465
Cosmos 2504 30 Jul 16:41:58 16:49:10 32° 275° (W) 16:56:21 435.465 / 435.565
KKS-1 30 Jul 17:00:31 17:05:00 88° 285° (WNW) 17:09:29 437.445
Gurwin Techsat 1B 30 Jul 17:00:54 17:03:01 12° 275° (W) 17:04:49 435.225
AO-7 30 Jul 17:05:35 17:13:55 68° 256° (WSW) 17:22:17 29.400- 29.500
HORYU 2 30 Jul 17:06:33 17:10:55 54° 260° (W) 17:15:19 437.375
DANDE 30 Jul 17:15:31 17:18:52 45° 261° (W) 17:23:15 436.750
BEESAT 30 Jul 17:18:37 17:21:22 15° 300° (WNW) 17:23:55 436.000
MOZHAYETS 4 30 Jul 17:38:33 17:42:39 31° 95° (E) 17:46:45
Cubesat XI-IV 30 Jul 17:49:03 17:52:48 20° 61° (ENE) 17:56:42 437.490
CUSAT 1 30 Jul 17:49:26 17:51:57 15° 265° (W) 17:54:40 437.405
JAS-2 30 Jul 17:52:18 17:56:21 17° 277° (W) 18:00:24 435.910
SO-50 30 Jul 17:56:23 18:00:07 21° 35° (NE) 18:03:53 436.795
GONETS M04 30 Jul 17:56:35 18:05:02 53° 73° (ENE) 18:13:33
STARS 30 Jul 18:15:05 18:18:48 26° 293° (WNW) 18:22:27 437.465
PCSat 30 Jul 18:21:08 18:25:39 26° 42° (NE) 18:30:14 145.827
KKS-1 30 Jul 18:39:35 18:41:00 11° 301° (WNW) 18:42:12 437.445
CUTE-I 30 Jul 18:43:43 18:48:56 55° 71° (ENE) 18:54:11 437.470
Cosmos 2499 30 Jul 18:52:54 19:00:24 32° 66° (ENE) 19:08:14 435.465 / 435.565
AO-7 30 Jul 19:04:35 19:08:33 13° 277° (W) 19:11:53 29.400- 29.500
MOZHAYETS 4 30 Jul 19:15:46 19:19:50 30° 292° (WNW) 19:23:50
BRITE-PL 30 Jul 19:24:07 19:26:33 15° 64° (ENE) 19:29:04 437.365/2234.400
Cubesat XI-IV 30 Jul 19:27:07 19:32:27 65° 258° (WSW) 19:37:49 437.490
CUBESAT XI-V 30 Jul 19:27:44 19:31:59 36° 96° (E) 19:36:14 437.345
SO-50 30 Jul 19:36:19 19:41:19 83° 234° (SW) 19:46:12 436.795
PRISM 30 Jul 19:43:05 19:43:56 11° 87° (E) 19:45:01 437.425
GOMX 1 30 Jul 19:43:51 19:45:56 14° 63° (ENE) 19:48:10 467.674
GONETS M04 30 Jul 19:53:52 20:01:41 37° 274° (W) 20:09:21
PCSat 30 Jul 20:04:08 20:09:30 61° 243° (WSW) 20:14:49 145.827
VERMONT LUNAR 30 Jul 20:25:14 20:27:37 20° 160° (SSE) 20:30:01 437.305
CUTE-I 30 Jul 20:25:15 20:29:24 22° 269° (W) 20:33:25 437.470
HO-68 30 Jul 20:30:27 20:37:03 43° 64° (ENE) 20:43:45 435.675
COMPASS 1 30 Jul 20:38:28 20:41:08 17° 64° (ENE) 20:43:57 437.405
Cosmos 2499 30 Jul 20:45:38 20:54:14 65° 266° (W) 21:02:57 435.465 / 435.565
CUTE 1.7 + AOD 2 30 Jul 20:49:44 20:53:32 33° 69° (ENE) 20:57:25 437.475
SEEDS 30 Jul 20:49:48 20:53:21 27° 68° (ENE) 20:56:59 437.485
STRAND 1 30 Jul 20:55:10 21:00:18 77° 103° (ESE) 21:05:24 437.568
CANX-2 30 Jul 20:57:35 21:01:37 43° 72° (ENE) 21:05:44 2200.000
BRITE-PL 30 Jul 21:00:25 21:04:47 56° 260° (W) 21:08:56 437.365/2234.400
CUBESAT XI-V 30 Jul 21:05:27 21:09:18 26° 293° (WNW) 21:13:03 437.345
DOVE 4 30 Jul 21:15:42 21:19:51 75° 75° (ENE) 21:24:00 437.250
PRISM 30 Jul 21:15:49 21:19:57 71° 286° (WNW) 21:24:01 437.425
SO-50 30 Jul 21:19:21 21:21:09 12° 252° (WSW) 21:22:40 436.795
GOMX 1 30 Jul 21:19:30 21:23:43 60° 259° (W) 21:27:50 467.674
DELFI C3 30 Jul 21:19:45 21:21:19 12° 62° (ENE) 21:23:04 145.870
AAUSAT CUBESAT 2 30 Jul 21:19:56 21:23:48 37° 71° (ENE) 21:27:43 437.432
